Deqing-1

operational
NORAD ID: 43159 Int'l Des: 2018-008 Owner: CGSTZ/CGSTL Country: CN
LEOCIRCULARRETROGRADESSO

Deqing-1について

説明を読み込み中...

リアルタイム位置

3D地球を読み込み中...

次回通過

高度履歴

Altitude vs Time

uPlot chart will show altitude changes over time

軌道要素

1 43159U 18008E 26063.58089836 .00012730 00000-0 40265-3 0 9996
2 43159 97.1871 86.3792 0010524 78.3787 281.8637 15.32855953448966
Epoch: Mar 4, 2026 • Age: 20 hours

現在のステータス

高度 480.7 km
速度 7.62 km/s
衛星直下点 -29.76°S, 13.03°W
打ち上げ日 Jan 19, 2018
運用期間 8.1 years
タイプ other

技術仕様

分類 Payload
質量 95.00 kg
乾燥質量 95.00 kg
総質量 95.00 kg
長さ 1.50 m
直径 1.00 m
スパン 1.50 m
形状 Box
製造者 CGSTL
バスタイプ JL-1
フェーズステータス In Orbit
所有者/国 CGSTZ/CGSTL/CN

大規模コンステレーション

Loading constellations...